Gale Watch
click here for details
SBYC BurgeeSandy Bay Yacht Club
Weather Center


NOAA NWS Hourly Roundups by Site

NOAA NWS Hourly Roundups by Site

Regional Weather Roundup for Boston, MA

To Select Another Site Choose from List
Select Site:  

567
ASUS41 KBOX 222210
RWRBOX

REGIONAL WEATHER ROUNDUP
NATIONAL WEATHER SERVICE BOSTON/NORTON MA
500 PM EST TUE JAN 22 2019

NOTE:  "FAIR" INDICATES FEW OR NO CLOUDS BELOW 12,000 FEET WITH NO
SIGNIFICANT WEATHER AND/OR OBSTRUCTIONS TO VISIBILITY.

MAZALL-222300-
EASTERN MASSACHUSETTS

CITY           SKY/WX    TMP DP  RH WIND       PRES   REMARKS
BOSTON         MOCLDY    28  -6  22 W12       30.54R WCI  18
BEVERLY        FAIR      23  -6  28 NW9       30.52R WCI  13
LAWRENCE       FAIR      23  -8  25 W9        30.54R WCI  13
BEDFORD        FAIR      25  -7  24 NW7       30.52S WCI  17
BLUE HILL        N/A     18   7  62 NW8       30.48S WCI   8
NORWOOD        FAIR      26  -2  29 W5        30.54S WCI  20
MARSHFIELD     FAIR      27  -4  26 W5        30.54R WCI  21
PLYMOUTH       FAIR      24  -1  33 W10       30.54R WCI  14
TAUNTON        FAIR      26  -6  24 CALM      30.54S
NEW BEDFORD    FAIR      24   2  38 SW3       30.54R
$$

MAZALL-222300-
CAPE COD AND THE ISLANDS

CITY           SKY/WX    TMP DP  RH WIND       PRES   REMARKS
FALMOUTH       FAIR      23  -6  28 NW3       30.54R
HYANNIS        FAIR      25  -1  32 CALM      30.52R
CHATHAM        FAIR      25   5  42 VRB7      30.53R WCI  17
PROVINCETOWN   FAIR      26   8  46 NW18G24   30.53R WCI  13
NANTUCKET      FAIR      24   0  35 W8        30.55R WCI  15
MARTHAS VNYRD  FAIR      24   2  38 W5        30.55R WCI  18
$$

MAZALL-222300-
CENTRAL AND WESTERN MASSACHUSETTS

CITY           SKY/WX    TMP DP  RH WIND       PRES   REMARKS
WORCESTER      FAIR      19  -5  34 W8        30.47S WCI   9
FITCHBURG      FAIR      22  -7  27 W8        30.53S WCI  12
ORANGE           N/A     20  -7  30 CALM      30.52S
SPRINGFIELD    MOCLDY    22  -1  36 W7        30.54S WCI  13
WESTFIELD      FAIR      22  -3  33 CALM      30.55F
NORTH ADAMS    FAIR      13  -5  44 SW6       30.55F WCI   4
PITTSFIELD     FAIR      15  -8  35 SW3       30.48F
$$

RIZALL-222300-
RHODE ISLAND

CITY           SKY/WX    TMP DP  RH WIND       PRES   REMARKS
PROVIDENCE     MOCLDY    23   5  46 W5        30.56S WCI  17
NEWPORT        FAIR      24   0  35 NW7       30.56R WCI  16
BLOCK ISLAND   FAIR      24   6  46 VRB5      30.57F WCI  18
SMITHFIELD     FAIR      19  10  68 W7        30.52S WCI  10
WESTERLY       FAIR      27  -2  28 VRB3      30.58S
$$

CTZALL-222300-
CONNECTICUT

CITY           SKY/WX    TMP DP  RH WIND       PRES   REMARKS
BRADLEY INTL   MOCLDY    21  -2  36 NW8       30.56F WCI  11
HARTFORD       FAIR      25  -2  31 W6        30.58F WCI  18
BRIDGEPORT     FAIR      25   4  40 NW6       30.61S WCI  18
DANBURY        FAIR      21  11  65 CALM      30.57F
GROTON         FAIR      25   0  33 W3        30.58S
NEW HAVEN      CLOUDY    25   8  48 VRB5      30.59F WCI  19
CHESTER        FAIR      23   3  42 W5        30.55F WCI  17
MERIDEN        FAIR      22  16  78 CALM      30.57F
WILLIMANTIC    FAIR      22   3  44 W3        30.56F
OXFORD         FAIR      18  11  74 W3        30.54F
$$

MEZ002-015-021-024-NHZ003-005-008-011-012-014-VTZ005-008-222300-
NORTHERN NEW ENGLAND

CITY           SKY/WX    TMP DP  RH WIND       PRES   REMARKS
PORTLAND ME    FAIR      20  -3  36 N8G17     30.50R WCI  10
BANGOR ME      FAIR      18 -11  27 W9G18     30.39R WCI   7
CONCORD NH     FAIR      19  -8  30 NW8       30.53R WCI   9
MANCHESTER NH  MOCLDY    20  -3  36 N6        30.52R WCI  12
NASHUA NH      FAIR      22  -2  35 NW6       30.53S WCI  14
PORTSMOUTH NH  MOCLDY    21 -10  24 W13G22    30.50R WCI   8
JAFFREY NH     FAIR      20 -10  26 VRB3      30.46S
KEENE NH       FAIR      20  -9  27 NW3       30.53S
BURLINGTON VT  MOCLDY     8  -6  52 S3        30.58F
MT. WASHINGTON MOCLDY     0 -15  50 NW69G81     N/A  WCI -35
$$

NYZ052-076-222300-
EASTERN NEW YORK

CITY           SKY/WX    TMP DP  RH WIND       PRES   REMARKS
ALBANY         MOCLDY    16  -3  43 CALM      30.60F
NEW YORK CITY  MOCLDY    31   1  28 VRB5      30.61S WCI  26
$$

ANZALL-222300-
MARINE OBSERVATIONS

STATION/POSITION TIME  TEMP    WIND        PRES    VSBY  WAVE
                       AIR SEA DIR/SP/G                  HT/PER
                 (UTC) (F)     (DEG/KT/KT) (MB)    (MI)  (FT/S)
BOSTON BUOY      2150   28 41  310/ 17/ 21 1033.4R         3/ 4
BUZZARDS BAY     2100   26     310/ 16/ 19 1035.2R
NANTUCKET SOUND  2150   28 35  310/ 12/ 16 1034.5R         2/ 3
MASS BAY-STELLWA 2104   27 40  310/ 19/ 23 1032.3R  1 7/8  3/ 3
ISLE OF SHOALS   2100   24     300/ 21/ 25 1032.3R
S OF BLOCK IS    2130      44                N/A           4/ 6
$$

......................KEY.........................
  SKY/WX - SKY CONDITION/PRESENT WEATHER
  TMP    - TEMPERATURE IN FAHRENHEIT
  DWPT   - DEWPOINT IN FAHRENHEIT
  RH     - RELATIVE HUMIDITY IN PERCENT
  WIND   - DIRECTION AND SPEED IN MPH
  PRES   - MEAN SEA LEVEL PRESSURE IN INCHES OF HG
  WCI    - WIND CHILL INDEX
  VSB    - VISIBILITY IN MILES
  HX     - HEAT INDEX
  TC     - TEMPERATURE IN CELSIUS
  VRB    - VARIABLE WIND DIRECTION
  N/A    - NOT AVAILABLE



 

View Past Reports for Boston, MA.

Products Courtesy of NOAA-NWS
NWS Information Parsing Script by Ken True at Saratoga Weather - Script by SE Lincoln Weather.

 



home

Copyright © Sandy Bay Yacht Club. All rights reserved.